Time,TemperatureF,DewpointF,PressureIn,WindDirection,WindDirectionDegrees,WindSpeedMPH,WindSpeedGustMPH,Humidity,HourlyPrecipIn,Conditions,Clouds,dailyrainin,SoftwareType,DateUTC
2013-03-24 00:00:00,29.8,29.8,30.08,NE,51,9.0,21.0,100,0.00,,---,0.00,VWS V14.01,2013-03-24 05:00:00,
2013-03-24 00:05:00,30.5,28.7,30.06,NNE,32,12.0,27.0,93,0.00,,---,0.00,VWS V14.01,2013-03-24 05:05:00,
2013-03-24 00:30:00,29.7,29.5,30.07,NE,43,9.0,21.0,99,0.00,,---,0.00,VWS V14.01,2013-03-24 05:30:00,
2013-03-24 00:35:00,30.5,28.5,30.05,NNE,22,3.0,15.0,92,0.00,,---,0.00,VWS V14.01,2013-03-24 05:35:00,
2013-03-24 01:00:00,30.5,28.7,30.06,NNE,32,12.0,27.0,93,0.00,,---,0.00,VWS V14.01,2013-03-24 06:00:00,
2013-03-24 01:05:00,30.7,27.9,30.05,NNE,25,9.0,33.0,89,0.00,,---,0.00,VWS V14.01,2013-03-24 06:05:00,
2013-03-24 01:30:00,30.5,28.5,30.05,NNE,22,3.0,15.0,92,0.00,,---,0.00,VWS V14.01,2013-03-24 06:30:00,
2013-03-24 01:35:00,30.1,28.8,30.06,NE,35,12.0,33.0,95,0.00,,---,0.00,VWS V14.01,2013-03-24 06:35:00,
2013-03-24 02:00:00,30.7,27.9,30.05,NNE,25,9.0,33.0,89,0.00,,---,0.00,VWS V14.01,2013-03-24 07:00:00,
2013-03-24 02:05:00,29.1,29.1,30.05,North,5,9.0,24.0,100,0.00,,---,0.00,VWS V14.01,2013-03-24 07:05:00,
2013-03-24 02:30:00,30.1,28.8,30.06,NE,35,12.0,33.0,95,0.00,,---,0.00,VWS V14.01,2013-03-24 07:30:00,
2013-03-24 02:35:00,28.9,28.9,30.04,NNE,16,12.0,15.0,100,0.00,,---,0.00,VWS V14.01,2013-03-24 07:35:00,
2013-03-24 03:00:00,29.1,29.1,30.05,North,5,9.0,24.0,100,0.00,,---,0.00,VWS V14.01,2013-03-24 08:00:00,
2013-03-24 03:05:00,28.9,28.9,30.03,NNW,342,6.0,21.0,100,0.00,,---,0.00,VWS V14.01,2013-03-24 08:05:00,
2013-03-24 03:30:00,28.9,28.9,30.04,NNE,16,12.0,15.0,100,0.00,,---,0.00,VWS V14.01,2013-03-24 08:30:00,
2013-03-24 03:35:00,28.8,28.8,30.01,NNW,335,6.0,21.0,100,0.00,,---,0.00,VWS V14.01,2013-03-24 08:35:00,
2013-03-24 04:00:00,28.9,28.9,30.03,NNW,342,6.0,21.0,100,0.00,,---,0.00,VWS V14.01,2013-03-24 09:00:00,
2013-03-24 04:05:00,28.6,28.6,30.00,NNE,19,15.0,27.0,100,0.00,,---,0.00,VWS V14.01,2013-03-24 09:05:00,
2013-03-24 04:30:00,28.8,28.8,30.01,NNW,335,6.0,21.0,100,0.00,,---,0.00,VWS V14.01,2013-03-24 09:30:00,
2013-03-24 04:35:00,28.2,28.2,29.99,NNE,12,9.0,24.0,100,0.00,,---,0.00,VWS V14.01,2013-03-24 09:35:00,
2013-03-24 05:00:00,28.6,28.6,30.00,NNE,19,15.0,27.0,100,0.00,,---,0.00,VWS V14.01,2013-03-24 10:00:00,
2013-03-24 05:05:00,27.9,27.9,30.00,North,355,12.0,30.0,100,0.00,,---,0.00,VWS V14.01,2013-03-24 10:05:00,
2013-03-24 05:30:00,28.2,28.2,29.99,NNE,12,9.0,24.0,100,0.00,,---,0.00,VWS V14.01,2013-03-24 10:30:00,
2013-03-24 06:00:00,27.9,27.9,30.00,North,355,12.0,30.0,100,0.00,,---,0.00,VWS V14.01,2013-03-24 11:00:00,
2013-03-24 08:35:00,27.4,27.4,29.96,NNE,30,12.0,24.0,100,0.00,,---,0.00,VWS V14.01,2013-03-24 13:35:00,
2013-03-24 09:05:00,27.9,27.9,29.97,North,355,18.0,27.0,100,0.00,,---,0.00,VWS V14.01,2013-03-24 14:05:00,
2013-03-24 09:30:00,27.4,27.4,29.96,NNE,30,12.0,24.0,100,0.00,,---,0.00,VWS V14.01,2013-03-24 14:30:00,
2013-03-24 09:35:00,28.2,28.2,29.97,North,360,3.0,24.0,100,0.00,,---,0.00,VWS V14.01,2013-03-24 14:35:00,
2013-03-24 10:00:00,27.9,27.9,29.97,North,355,18.0,27.0,100,0.00,,---,0.00,VWS V14.01,2013-03-24 15:00:00,
2013-03-24 10:30:00,28.2,28.2,29.97,North,360,3.0,24.0,100,0.00,,---,0.00,VWS V14.01,2013-03-24 15:30:00,
2013-03-24 11:00:00,28.2,28.2,29.96,NW,325,12.0,27.0,100,0.00,,---,0.00,VWS V14.01,2013-03-24 16:00:00,
2013-03-24 11:30:00,28.4,28.4,29.96,NNW,348,15.0,24.0,100,0.00,,---,0.00,VWS V14.01,2013-03-24 16:30:00,
2013-03-24 12:00:00,28.9,28.9,29.96,NW,319,6.0,30.0,100,0.00,,---,0.00,VWS V14.01,2013-03-24 17:00:00,
2013-03-24 12:30:00,29.5,29.2,29.95,NW,324,12.0,36.0,99,0.00,,---,0.00,VWS V14.01,2013-03-24 17:30:00,
2013-03-24 13:00:00,29.6,29.1,29.94,North,10,18.0,36.0,98,0.00,,---,0.00,VWS V14.01,2013-03-24 18:00:00,
2013-03-24 13:30:00,29.6,29.1,29.94,NNW,344,15.0,33.0,98,0.01,,---,0.01,VWS V14.01,2013-03-24 18:30:00,
2013-03-24 14:00:00,29.5,29.5,29.94,North,360,24.0,33.0,100,0.02,,---,0.02,VWS V14.01,2013-03-24 19:00:00,
2013-03-24 14:30:00,29.5,29.5,29.93,NW,318,18.0,30.0,100,0.02,,---,0.02,VWS V14.01,2013-03-24 19:30:00,
2013-03-24 15:00:00,29.9,29.9,29.92,NNW,342,9.0,30.0,100,0.02,,---,0.03,VWS V14.01,2013-03-24 20:00:00,
2013-03-24 15:30:00,30.2,30.0,29.92,NNW,338,21.0,36.0,99,0.01,,---,0.03,VWS V14.01,2013-03-24 20:30:00,
2013-03-24 16:00:00,30.5,30.2,29.92,NNW,340,12.0,33.0,99,0.02,,---,0.04,VWS V14.01,2013-03-24 21:00:00,
2013-03-24 16:30:00,30.6,30.4,29.92,NNW,336,6.0,33.0,99,0.02,,---,0.05,VWS V14.01,2013-03-24 21:30:00,
2013-03-24 17:00:00,30.3,30.3,29.92,WNW,300,9.0,42.0,100,0.02,,---,0.05,VWS V14.01,2013-03-24 22:00:00,
2013-03-24 17:05:00,29.9,29.9,29.93,NNW,343,15.0,39.0,100,0.00,,---,0.05,VWS V14.01,2013-03-24 22:05:00,
2013-03-24 17:30:00,30.4,30.4,29.92,NW,306,12.0,48.0,100,0.01,,---,0.05,VWS V14.01,2013-03-24 22:30:00,
2013-03-24 17:35:00,30.2,30.2,29.94,WSW,257,6.0,42.0,100,0.00,,---,0.05,VWS V14.01,2013-03-24 22:35:00,
2013-03-24 18:00:00,29.9,29.9,29.93,NNW,343,15.0,39.0,100,0.00,,---,0.05,VWS V14.01,2013-03-24 23:00:00,
2013-03-24 18:05:00,29.8,29.8,29.94,NNW,329,21.0,33.0,100,0.00,,---,0.05,VWS V14.01,2013-03-24 23:05:00,
2013-03-24 18:30:00,30.2,30.2,29.94,WSW,257,6.0,42.0,100,0.00,,---,0.05,VWS V14.01,2013-03-24 23:30:00,
2013-03-24 18:35:00,29.4,29.4,29.95,North,5,18.0,36.0,100,0.00,,---,0.05,VWS V14.01,2013-03-24 23:35:00,
2013-03-24 19:00:00,29.8,29.8,29.94,NNW,329,21.0,33.0,100,0.00,,---,0.05,VWS V14.01,2013-03-25 00:00:00,
2013-03-24 19:05:00,29.0,29.0,29.96,WNW,303,12.0,33.0,100,0.00,,---,0.05,VWS V14.01,2013-03-25 00:05:00,
2013-03-24 19:30:00,29.4,29.4,29.95,North,5,18.0,36.0,100,0.00,,---,0.05,VWS V14.01,2013-03-25 00:30:00,
2013-03-24 19:35:00,28.9,28.9,29.97,North,5,15.0,33.0,100,0.00,,---,0.05,VWS V14.01,2013-03-25 00:35:00,
2013-03-24 20:00:00,29.0,29.0,29.96,WNW,303,12.0,33.0,100,0.00,,---,0.05,VWS V14.01,2013-03-25 01:00:00,
2013-03-24 20:05:00,28.9,28.9,29.98,North,355,6.0,33.0,100,0.00,,---,0.05,VWS V14.01,2013-03-25 01:05:00,
2013-03-24 20:30:00,28.9,28.9,29.97,North,5,15.0,33.0,100,0.00,,---,0.05,VWS V14.01,2013-03-25 01:30:00,
2013-03-24 20:35:00,28.8,28.8,29.98,North,5,15.0,30.0,100,0.00,,---,0.05,VWS V14.01,2013-03-25 01:35:00,
2013-03-24 21:00:00,28.9,28.9,29.98,North,355,6.0,33.0,100,0.00,,---,0.05,VWS V14.01,2013-03-25 02:00:00,
2013-03-24 21:05:00,28.7,28.7,29.98,North,355,6.0,24.0,100,0.00,,---,0.05,VWS V14.01,2013-03-25 02:05:00,
2013-03-24 21:30:00,28.8,28.8,29.98,North,5,15.0,30.0,100,0.00,,---,0.05,VWS V14.01,2013-03-25 02:30:00,
2013-03-24 21:35:00,28.7,28.7,29.98,NW,312,9.0,30.0,100,0.00,,---,0.05,VWS V14.01,2013-03-25 02:35:00,
2013-03-24 22:00:00,28.7,28.7,29.98,North,355,6.0,24.0,100,0.00,,---,0.05,VWS V14.01,2013-03-25 03:00:00,
2013-03-24 22:05:00,28.5,28.5,29.99,NNW,335,18.0,27.0,100,0.00,,---,0.05,VWS V14.01,2013-03-25 03:05:00,
2013-03-24 22:30:00,28.7,28.7,29.98,NW,312,9.0,30.0,100,0.00,,---,0.05,VWS V14.01,2013-03-25 03:30:00,
2013-03-24 22:35:00,28.4,28.4,29.99,NW,313,6.0,24.0,100,0.00,,---,0.05,VWS V14.01,2013-03-25 03:35:00,
2013-03-24 23:00:00,28.5,28.5,29.99,NNW,335,18.0,27.0,100,0.00,,---,0.05,VWS V14.01,2013-03-25 04:00:00,
2013-03-24 23:05:00,28.3,28.3,29.99,NNW,337,15.0,21.0,100,0.00,,---,0.05,VWS V14.01,2013-03-25 04:05:00,
2013-03-24 23:30:00,28.4,28.4,29.99,NW,313,6.0,24.0,100,0.00,,---,0.05,VWS V14.01,2013-03-25 04:30:00,
2013-03-24 23:35:00,28.2,28.2,29.99,NNW,335,3.0,27.0,100,0.00,,---,0.05,VWS V14.01,2013-03-25 04:35:00,